Погода в Амазаре

Россия / Забайкальский край     53°51′28″N   120°52′02″E
темп.,
°C
ветер,
м/с
пор.,
м/с
влажн.,
%
обл.,
%
осадки,
мм/ч
давл.,
гПа
погр.,
м
15 мая, сб
сб1500:00+3ссз279594 0.0 1008484
03:00+4сз1897100 0.0 1008623
06:00+4зсз378463 0.0 1007759
09:00+9с5105285 0.0 10061459
12:00+13ссз693484 0.0 10052310
15:00+14ссз583093 0.0 10042536
18:00+14ссз472951 0.0 10032692
21:00+7с11543 0.0 100610
16 мая, вс
вс1600:00+4ссв11661 0.0 100611
03:00+2ссз11760 0.0 100510
06:00+3ссв11730 0.0 100412
09:00+11юз22441 0.0 1001558
12:00+15юз45304 0.0 9991559
15:00+18зюз692231 0.0 9963362
18:00+17зсз411235 0.0 9953744
21:00+9сз387469 0.8 998413
17 мая, пн
пн1700:00+5зсз311835 0.0 1001349
03:00+2зсз3106187 0.0 1003299
06:00+1зсз2859100 0.0 1004316
09:00+6сз3535100 0.0 10041014
12:00+10сз352599 0.0 10021931
15:00+13з2420100 0.0 9992995
18:00+12зсз1326100 0.0 9982490
21:00+7зсз1148100 0.0 99925
18 мая, вт
вт1800:00+5вюв1175100 0.2 99934
03:00+3ссв2296100 1.5 1000284
06:00+1ссз259999 1.9 1000233
09:00+4с477065 2.2 10021264
12:00+7ссз465289 0.4 10021796
15:00+9с473989 0.6 10012444
18:00+8сз24467 0.3 10021360
21:00+3з116994 0.7 100310
19 мая, ср
ср1900:000з11793 0.1 100511
03:00−2з118911 0.1 100510
06:00−1з008373 0.0 100632
09:00+6ююв2353100 0.0 1003500
12:00+9ю4641100 0.0 10001937
15:00+11юз3536100 0.0 9972012
18:00+10зсз355449 0.1 9961293
21:00+5ссв228789 0.3 99827